Location: Invercargill
(46.4000°S, 168.3500°E)
Time: 18:32:55
(UTC+13:00)

Cosmos 2322 - Pass Details

Date: 03 October 2021
Orbit: 840 x 855 km, 71.0° (Epoch: 17 October)

Event Time Altitude Azimuth Distance (km) Brightness Sun altitude
Rises 20:33:35 0° 199° (SSW) 3,436 7.4 -6.9°
Reaches altitude 10° 20:38:14 10° 165° (SSE) 2,497 6.2 -7.7°
Maximum altitude 20:39:57 11° 148° (SSE) 2,406 5.9 -8.0°
Drops below altitude 10° 20:41:39 10° 130° (SE) 2,494 5.8 -8.3°
Enters shadow 20:44:14 - 108° (ESE) 2,922 6.0 -8.7°
